Tracking 19170 objects as of 22-May-2018
HD Live streaming from Space Station
objects crossing your sky now

SL-8 R/B

Track SL-8 R/B now!
10-day predictions


NORAD ID: 20578
Int'l Code: 1990-036B
Perigee: 973.5 km
Apogee: 994.3 km
Inclination: 82.9 °
Period: 104.6 minutes
Semi major axis: 7354 km
RCS: 4.8041 m2 (large)
Launch date: April 20, 1990
Source: Commonwealth of Independent States (former USSR) (CIS)
Launch site: PLESETSK MISSILE AND SPACE COMPLEX (PKMTR)

Note: This is a ROCKET BODY
aabbcc
Your satellite tracking list
Your tracking list is empty




NASA's NSSDC Master Catalog

Two Line Element Set (TLE):
1 20578U 90036B   18141.59126263 +.00000101 +00000-0 +87655-4 0  9996
2 20578 082.9419 108.6854 0014162 108.1465 344.9018 13.76376245410242
Source of the keplerian elements: AFSPC